Year,Month,Day,Hour,Minute,Value (Times are PST for temperature in C)
2020,02,29,00,00,-30.30
2020,02,29,00,01,-30.30
2020,02,29,00,02,-30.30
2020,02,29,00,03,-30.30
2020,02,29,00,04,-30.40
2020,02,29,00,05,-30.40
2020,02,29,00,06,-30.40
2020,02,29,00,07,-30.40
2020,02,29,00,08,-30.50
2020,02,29,00,09,-30.50
2020,02,29,00,10,-30.50
2020,02,29,00,11,-30.50
2020,02,29,00,12,-30.50
2020,02,29,00,13,-30.50
2020,02,29,00,14,-30.50
2020,02,29,00,15,-30.50
2020,02,29,00,16,-30.50
2020,02,29,00,17,-30.50
2020,02,29,00,18,-30.50
2020,02,29,00,19,-30.50
2020,02,29,00,20,-30.60
2020,02,29,00,21,-30.60
2020,02,29,00,22,-30.60
2020,02,29,00,23,-30.60
2020,02,29,00,24,-30.60
2020,02,29,00,25,-30.70
2020,02,29,00,26,-30.70
2020,02,29,00,27,-30.70
2020,02,29,00,28,-30.70
2020,02,29,00,29,-30.70
2020,02,29,00,30,-30.80
2020,02,29,00,31,-30.80
2020,02,29,00,32,-30.80
2020,02,29,00,33,-30.80
2020,02,29,00,34,-30.90
2020,02,29,00,35,-30.90
2020,02,29,00,36,-30.90
2020,02,29,00,37,-31.00
2020,02,29,00,38,-31.00
2020,02,29,00,39,-31.00
2020,02,29,00,40,-31.10
2020,02,29,00,41,-31.10
2020,02,29,00,42,-31.10
2020,02,29,00,43,-31.10
2020,02,29,00,44,-31.20
2020,02,29,00,45,-31.20
2020,02,29,00,46,-31.20
2020,02,29,00,47,-31.20
2020,02,29,00,48,-31.20
2020,02,29,00,49,-31.20
2020,02,29,00,50,-31.30
2020,02,29,00,51,-31.30
2020,02,29,00,52,-31.30
2020,02,29,00,53,-31.30
2020,02,29,00,54,-31.30
2020,02,29,00,55,-31.30
2020,02,29,00,56,-31.30
2020,02,29,00,57,-31.30
2020,02,29,00,58,-31.30
2020,02,29,00,59,-31.30
2020,02,29,01,00,-31.40
2020,02,29,01,01,-31.40
2020,02,29,01,02,-31.40
2020,02,29,01,03,-31.40
2020,02,29,01,04,-31.40
2020,02,29,01,05,-31.40
2020,02,29,01,06,-31.40
2020,02,29,01,07,-31.40
2020,02,29,01,08,-31.40
2020,02,29,01,09,-31.40
2020,02,29,01,10,-31.40
2020,02,29,01,11,-31.40
2020,02,29,01,12,-31.40
2020,02,29,01,13,-31.40
2020,02,29,01,14,-31.40
2020,02,29,01,15,-31.50
2020,02,29,01,16,-31.50
2020,02,29,01,17,-31.50
2020,02,29,01,18,-31.60
2020,02,29,01,19,-31.60
2020,02,29,01,20,-31.60
2020,02,29,01,21,-31.60
2020,02,29,01,22,-31.60
2020,02,29,01,23,-31.60
2020,02,29,01,24,-31.60
2020,02,29,01,25,-31.60
2020,02,29,01,26,-31.70
2020,02,29,01,27,-31.70
2020,02,29,01,28,-31.70
2020,02,29,01,29,-31.70
2020,02,29,01,30,-31.70
2020,02,29,01,31,-31.70
2020,02,29,01,32,-31.70
2020,02,29,01,33,-31.70
2020,02,29,01,34,-31.70
2020,02,29,01,35,-31.70
2020,02,29,01,36,-31.70
2020,02,29,01,37,-31.70
2020,02,29,01,38,-31.70
2020,02,29,01,39,-31.70
2020,02,29,01,40,-31.70
2020,02,29,01,41,-31.80
2020,02,29,01,42,-31.80
2020,02,29,01,43,-31.80
2020,02,29,01,44,-31.80
2020,02,29,01,45,-31.80
2020,02,29,01,46,-31.80
2020,02,29,01,47,-31.80
2020,02,29,01,48,-31.80
2020,02,29,01,49,-31.90
2020,02,29,01,50,-31.90
2020,02,29,01,51,-31.90
2020,02,29,01,52,-31.90
2020,02,29,01,53,-31.90
2020,02,29,01,54,-31.90
2020,02,29,01,55,-31.90
2020,02,29,01,56,-31.90
2020,02,29,01,57,-31.90
2020,02,29,01,58,-31.90
2020,02,29,01,59,-31.90
2020,02,29,02,00,-31.90
2020,02,29,02,01,-31.90
2020,02,29,02,02,-31.90
2020,02,29,02,03,-31.90
2020,02,29,02,04,-31.90
2020,02,29,02,05,-32.00
2020,02,29,02,06,-32.00
2020,02,29,02,07,-32.00
2020,02,29,02,08,-32.00
2020,02,29,02,09,-32.00
2020,02,29,02,10,-32.00
2020,02,29,02,11,-32.00
2020,02,29,02,12,-32.10
2020,02,29,02,13,-32.10
2020,02,29,02,14,-32.10
2020,02,29,02,15,-32.20
2020,02,29,02,16,-32.20
2020,02,29,02,17,-32.20
2020,02,29,02,18,-32.20
2020,02,29,02,19,-32.20
2020,02,29,02,20,-32.30
2020,02,29,02,21,-32.30
2020,02,29,02,22,-32.30
2020,02,29,02,23,-32.30
2020,02,29,02,24,-32.30
2020,02,29,02,25,-32.30
2020,02,29,02,26,-32.30
2020,02,29,02,27,-32.30
2020,02,29,02,28,-32.40
2020,02,29,02,29,-32.40
2020,02,29,02,30,-32.40
2020,02,29,02,31,-32.40
2020,02,29,02,32,-32.40
2020,02,29,02,33,-32.40
2020,02,29,02,34,-32.40
2020,02,29,02,35,-32.40
2020,02,29,02,36,-32.40
2020,02,29,02,37,-32.40
2020,02,29,02,38,-32.40
2020,02,29,02,39,-32.40
2020,02,29,02,40,-32.40
2020,02,29,02,41,-32.40
2020,02,29,02,42,-32.40
2020,02,29,02,43,-32.40
2020,02,29,02,44,-32.40
2020,02,29,02,45,-32.40
2020,02,29,02,46,-32.40
2020,02,29,02,47,-32.40
2020,02,29,02,48,-32.50
2020,02,29,02,49,-32.50
2020,02,29,02,50,-32.50
2020,02,29,02,51,-32.60
2020,02,29,02,52,-32.60
2020,02,29,02,53,-32.60
2020,02,29,02,54,-32.60
2020,02,29,02,55,-32.60
2020,02,29,02,56,-32.70
2020,02,29,02,57,-32.70
2020,02,29,02,58,-32.70
2020,02,29,02,59,-32.70
2020,02,29,03,00,-32.70
2020,02,29,03,01,-32.70
2020,02,29,03,02,-32.70
2020,02,29,03,03,-32.70
2020,02,29,03,04,-32.70
2020,02,29,03,05,-32.70
2020,02,29,03,06,-32.70
2020,02,29,03,07,-32.70
2020,02,29,03,08,-32.70
2020,02,29,03,09,-32.60
2020,02,29,03,10,-32.60
2020,02,29,03,11,-32.60
2020,02,29,03,12,-32.50
2020,02,29,03,13,-32.50
2020,02,29,03,14,-32.50
2020,02,29,03,15,-32.50
2020,02,29,03,16,-32.50
2020,02,29,03,17,-32.60
2020,02,29,03,18,-32.60
2020,02,29,03,19,-32.60
2020,02,29,03,20,-32.60
2020,02,29,03,21,-32.60
2020,02,29,03,22,-32.70
2020,02,29,03,23,-32.70
2020,02,29,03,24,-32.70
2020,02,29,03,25,-32.70
2020,02,29,03,26,-32.70
2020,02,29,03,27,-32.80
2020,02,29,03,28,-32.80
2020,02,29,03,29,-32.80
2020,02,29,03,30,-32.80
2020,02,29,03,31,-32.80
2020,02,29,03,32,-32.80
2020,02,29,03,33,-32.80
2020,02,29,03,34,-32.80
2020,02,29,03,35,-32.80
2020,02,29,03,36,-32.80
2020,02,29,03,37,-32.80
2020,02,29,03,38,-32.80
2020,02,29,03,39,-32.80
2020,02,29,03,40,-32.80
2020,02,29,03,41,-32.80
2020,02,29,03,42,-32.80
2020,02,29,03,43,-32.80
2020,02,29,03,44,-32.80
2020,02,29,03,45,-32.80
2020,02,29,03,46,-32.80
2020,02,29,03,47,-32.80
2020,02,29,03,48,-32.80
2020,02,29,03,49,-32.80
2020,02,29,03,50,-32.80
2020,02,29,03,51,-32.80
2020,02,29,03,52,-32.80
2020,02,29,03,53,-32.80
2020,02,29,03,54,-32.80
2020,02,29,03,55,-32.80
2020,02,29,03,56,-32.80
2020,02,29,03,57,-32.80
2020,02,29,03,58,-32.90
2020,02,29,03,59,-32.90
2020,02,29,04,00,-32.90
2020,02,29,04,01,-32.90
2020,02,29,04,02,-32.90
2020,02,29,04,03,-32.90
2020,02,29,04,04,-32.90
2020,02,29,04,05,-32.90
2020,02,29,04,06,-32.90
2020,02,29,04,07,-32.90
2020,02,29,04,08,-32.90
2020,02,29,04,09,-32.90
2020,02,29,04,10,-32.90
2020,02,29,04,11,-32.90
2020,02,29,04,12,-32.90
2020,02,29,04,13,-32.90
2020,02,29,04,14,-32.90
2020,02,29,05,04,-33.30
2020,02,29,05,05,-33.30
2020,02,29,05,06,-33.30
2020,02,29,05,07,-33.30
2020,02,29,05,08,-33.30
2020,02,29,05,09,-33.30
2020,02,29,05,10,-33.30
2020,02,29,05,11,-33.40
2020,02,29,05,12,-33.30
2020,02,29,05,13,-33.30
2020,02,29,05,14,-33.30
2020,02,29,05,15,-33.40
2020,02,29,05,16,-33.30
2020,02,29,05,17,-33.30
2020,02,29,05,18,-33.30
2020,02,29,05,19,-33.30
2020,02,29,05,20,-33.30
2020,02,29,05,21,-33.30
2020,02,29,05,22,-33.30
2020,02,29,05,23,-33.30
2020,02,29,05,24,-33.30
2020,02,29,05,25,-33.30
2020,02,29,05,26,-33.30
2020,02,29,05,27,-33.30
2020,02,29,05,28,-33.30
2020,02,29,05,29,-33.30
2020,02,29,05,30,-33.30
2020,02,29,05,31,-33.30
2020,02,29,05,32,-33.30
2020,02,29,05,33,-33.30
2020,02,29,05,34,-33.30
2020,02,29,05,35,-33.30
2020,02,29,05,36,-33.30
2020,02,29,05,37,-33.30
2020,02,29,05,38,-33.30
2020,02,29,05,39,-33.30
2020,02,29,05,40,-33.30
2020,02,29,05,41,-33.30
2020,02,29,05,42,-33.40
2020,02,29,05,43,-33.40
2020,02,29,05,44,-33.40
2020,02,29,05,45,-33.40
2020,02,29,05,46,-33.40
2020,02,29,05,47,-33.40
2020,02,29,05,48,-33.40
2020,02,29,05,49,-33.40
2020,02,29,05,50,-33.40
2020,02,29,05,51,-33.40
2020,02,29,05,52,-33.40
2020,02,29,05,53,-33.40
2020,02,29,05,54,-33.40
2020,02,29,05,55,-33.40
2020,02,29,05,56,-33.50
2020,02,29,05,57,-33.50
2020,02,29,05,58,-33.50
2020,02,29,05,59,-33.50
2020,02,29,06,00,-33.50
2020,02,29,06,01,-33.50
2020,02,29,06,02,-33.50
2020,02,29,06,03,-33.60
2020,02,29,06,04,-33.60
2020,02,29,06,05,-33.60
2020,02,29,06,06,-33.60
2020,02,29,06,07,-33.60
2020,02,29,06,08,-33.60
2020,02,29,06,09,-33.60
2020,02,29,06,10,-33.60
2020,02,29,06,11,-33.60
2020,02,29,06,12,-33.60
2020,02,29,06,13,-33.60
2020,02,29,06,14,-33.60
2020,02,29,06,15,-33.60
2020,02,29,06,16,-33.60
2020,02,29,06,17,-33.60
2020,02,29,06,18,-33.60
2020,02,29,06,19,-33.60
2020,02,29,06,20,-33.60
2020,02,29,06,21,-33.60
2020,02,29,06,22,-33.60
2020,02,29,06,23,-33.60
2020,02,29,06,24,-33.60
2020,02,29,06,25,-33.60
2020,02,29,06,26,-33.60
2020,02,29,06,27,-33.60
2020,02,29,06,28,-33.60
2020,02,29,06,29,-33.60
2020,02,29,06,30,-33.60
2020,02,29,06,31,-33.60
2020,02,29,06,32,-33.60
2020,02,29,06,33,-33.60
2020,02,29,06,34,-33.60
2020,02,29,06,35,-33.70
2020,02,29,06,36,-33.60
2020,02,29,06,37,-33.70
2020,02,29,06,38,-33.70
2020,02,29,06,39,-33.60
2020,02,29,06,40,-33.70
2020,02,29,06,41,-33.60
2020,02,29,06,42,-33.60
2020,02,29,06,43,-33.60
2020,02,29,06,44,-33.60
2020,02,29,06,45,-33.60
2020,02,29,06,46,-33.60
2020,02,29,06,47,-33.60
2020,02,29,06,48,-33.60
2020,02,29,06,49,-33.70
2020,02,29,06,50,-33.70
2020,02,29,06,51,-33.70
2020,02,29,06,52,-33.70
2020,02,29,06,53,-33.70
2020,02,29,06,54,-33.70
2020,02,29,06,55,-33.70
2020,02,29,06,56,-33.70
2020,02,29,06,57,-33.70
2020,02,29,06,58,-33.70
2020,02,29,06,59,-33.70
2020,02,29,07,00,-33.70
2020,02,29,07,01,-33.70
2020,02,29,07,02,-33.70
2020,02,29,07,03,-33.70
2020,02,29,07,04,-33.70
2020,02,29,07,05,-33.70
2020,02,29,07,06,-33.70
2020,02,29,07,07,-33.70
2020,02,29,07,08,-33.80
2020,02,29,07,09,-33.80
2020,02,29,07,10,-33.80
2020,02,29,07,11,-33.80
2020,02,29,07,12,-33.80
2020,02,29,07,13,-33.80
2020,02,29,07,14,-33.80
2020,02,29,07,15,-33.80
2020,02,29,07,16,-33.80
2020,02,29,07,17,-33.80
2020,02,29,07,18,-33.80
2020,02,29,07,19,-33.80
2020,02,29,07,20,-33.80
2020,02,29,07,21,-33.80
2020,02,29,07,22,-33.80
2020,02,29,07,23,-33.80
2020,02,29,07,24,-33.80
2020,02,29,07,25,-33.80
2020,02,29,07,26,-33.80
2020,02,29,07,27,-33.80
2020,02,29,07,28,-33.80
2020,02,29,07,29,-33.80
2020,02,29,07,30,-33.80
2020,02,29,07,31,-33.80
2020,02,29,07,32,-33.80
2020,02,29,07,33,-33.80
2020,02,29,07,34,-33.90
2020,02,29,07,35,-33.90
2020,02,29,07,36,-33.90
2020,02,29,07,37,-33.90
2020,02,29,07,38,-33.90
2020,02,29,07,39,-33.90
2020,02,29,07,40,-33.90
2020,02,29,07,41,-33.90
2020,02,29,07,42,-34.00
2020,02,29,07,43,-34.00
2020,02,29,07,44,-34.00
2020,02,29,07,45,-34.00
2020,02,29,07,46,-34.00
2020,02,29,07,47,-34.10
2020,02,29,07,48,-34.10
2020,02,29,07,49,-34.10
2020,02,29,07,50,-34.10
2020,02,29,07,51,-34.10
2020,02,29,07,52,-34.10
2020,02,29,07,53,-34.10
2020,02,29,07,54,-34.10
2020,02,29,07,55,-34.10
2020,02,29,07,56,-34.10
2020,02,29,07,57,-34.10
2020,02,29,07,58,-34.10
2020,02,29,07,59,-34.10
2020,02,29,08,00,-34.20
2020,02,29,08,01,-34.20
2020,02,29,08,02,-34.20
2020,02,29,08,03,-34.20
2020,02,29,08,04,-34.20
2020,02,29,08,05,-34.20
2020,02,29,08,06,-34.20
2020,02,29,08,07,-34.20
2020,02,29,08,08,-34.20
2020,02,29,08,09,-34.20
2020,02,29,08,10,-34.20
2020,02,29,08,11,-34.20
2020,02,29,08,12,-34.20
2020,02,29,08,13,-34.20
2020,02,29,08,14,-34.20
2020,02,29,08,15,-34.20
2020,02,29,08,16,-34.20
2020,02,29,08,17,-34.30
2020,02,29,08,18,-34.30
2020,02,29,08,19,-34.30
2020,02,29,08,20,-34.30
2020,02,29,08,21,-34.30
2020,02,29,08,22,-34.30
2020,02,29,08,23,-34.30
2020,02,29,08,24,-34.30
2020,02,29,08,25,-34.40
2020,02,29,08,26,-34.40
2020,02,29,08,27,-34.40
2020,02,29,08,28,-34.40
2020,02,29,08,29,-34.40
2020,02,29,08,30,-34.40
2020,02,29,08,31,-34.50
2020,02,29,08,32,-34.50
2020,02,29,08,33,-34.50
2020,02,29,08,34,-34.50
2020,02,29,08,35,-34.50
2020,02,29,08,36,-34.50
2020,02,29,08,37,-34.50
2020,02,29,08,38,-34.50
2020,02,29,08,39,-34.50
2020,02,29,08,40,-34.50
2020,02,29,08,41,-34.50
2020,02,29,08,42,-34.50
2020,02,29,08,43,-34.50
2020,02,29,08,44,-34.50
2020,02,29,08,45,-34.50
2020,02,29,08,46,-34.50
2020,02,29,08,47,-34.50
2020,02,29,08,48,-34.50
2020,02,29,08,49,-34.50
2020,02,29,08,50,-34.50
2020,02,29,08,51,-34.50
2020,02,29,08,52,-34.50
2020,02,29,08,53,-34.50
2020,02,29,08,54,-34.50
2020,02,29,08,55,-34.50
2020,02,29,08,56,-34.50
2020,02,29,08,57,-34.50
2020,02,29,08,58,-34.50
2020,02,29,08,59,-34.50
2020,02,29,09,00,-34.50
2020,02,29,09,01,-34.50
2020,02,29,09,02,-34.50
2020,02,29,09,03,-34.50
2020,02,29,09,04,-34.50
2020,02,29,09,05,-34.50
2020,02,29,09,06,-34.50
2020,02,29,09,07,-34.50
2020,02,29,09,08,-34.50
2020,02,29,09,09,-34.50
2020,02,29,09,10,-34.50
2020,02,29,10,34,-33.70
2020,02,29,10,35,-33.70
2020,02,29,10,36,-33.60
2020,02,29,10,37,-33.60
2020,02,29,10,38,-33.60
2020,02,29,10,39,-33.60
2020,02,29,10,40,-33.60
2020,02,29,10,41,-33.60
2020,02,29,10,42,-33.60
2020,02,29,10,43,-33.60
2020,02,29,10,44,-33.50
2020,02,29,10,45,-33.50
2020,02,29,10,46,-33.50
2020,02,29,10,47,-33.40
2020,02,29,10,48,-33.40
2020,02,29,10,49,-33.40
2020,02,29,10,50,-33.30
2020,02,29,10,51,-33.30
2020,02,29,10,52,-33.30
2020,02,29,10,53,-33.20
2020,02,29,10,54,-33.20
2020,02,29,10,55,-33.10
2020,02,29,10,56,-33.10
2020,02,29,10,57,-33.10
2020,02,29,10,58,-33.00
2020,02,29,10,59,-33.00
2020,02,29,11,00,-32.90
2020,02,29,11,01,-32.90
2020,02,29,11,02,-32.80
2020,02,29,11,03,-32.70
2020,02,29,11,04,-32.60
2020,02,29,11,05,-32.50
2020,02,29,11,06,-32.40
2020,02,29,11,07,-32.20
2020,02,29,11,08,-32.10
2020,02,29,11,09,-32.00
2020,02,29,11,10,-31.90
2020,02,29,11,11,-31.90
2020,02,29,11,12,-31.70
2020,02,29,11,13,-31.50
2020,02,29,11,14,-31.50
2020,02,29,11,15,-31.40
2020,02,29,11,16,-31.40
2020,02,29,11,17,-31.40
2020,02,29,11,18,-31.40
2020,02,29,11,19,-31.40
2020,02,29,11,20,-31.40
2020,02,29,11,21,-31.40
2020,02,29,11,22,-31.30
2020,02,29,11,23,-31.30
2020,02,29,11,24,-31.30
2020,02,29,11,25,-31.20
2020,02,29,11,26,-31.20
2020,02,29,11,27,-31.20
2020,02,29,11,28,-31.20
2020,02,29,11,29,-31.10
2020,02,29,11,30,-31.10
2020,02,29,11,31,-31.00
2020,02,29,11,32,-31.00
2020,02,29,11,33,-30.90
2020,02,29,11,34,-30.80
2020,02,29,11,35,-30.80
2020,02,29,11,36,-30.70
2020,02,29,11,37,-30.60
2020,02,29,11,38,-30.60
2020,02,29,11,39,-30.50
2020,02,29,11,40,-30.40
2020,02,29,11,41,-30.30
2020,02,29,11,42,-30.30
2020,02,29,11,43,-30.20
2020,02,29,11,44,-30.20
2020,02,29,11,45,-30.10
2020,02,29,11,46,-30.00
2020,02,29,11,47,-29.90
2020,02,29,11,48,-29.80
2020,02,29,11,49,-29.80
2020,02,29,11,50,-29.70
2020,02,29,11,51,-29.70
2020,02,29,11,52,-29.60
2020,02,29,11,53,-29.50
2020,02,29,11,54,-29.50
2020,02,29,11,55,-29.40
2020,02,29,11,56,-29.30
2020,02,29,11,57,-29.20
2020,02,29,11,58,-29.20
2020,02,29,11,59,-29.10
2020,02,29,12,00,-29.10
2020,02,29,12,01,-29.10
2020,02,29,12,02,-29.10
2020,02,29,12,03,-29.10
2020,02,29,12,04,-29.10
2020,02,29,12,05,-29.10
2020,02,29,12,06,-29.10
2020,02,29,12,07,-29.10
2020,02,29,12,08,-29.10
2020,02,29,12,09,-29.10
2020,02,29,12,10,-29.10
2020,02,29,12,11,-29.10
2020,02,29,12,12,-29.20
2020,02,29,12,13,-29.20
2020,02,29,12,14,-29.20
2020,02,29,12,15,-29.20
2020,02,29,12,16,-29.20
2020,02,29,12,17,-29.10
2020,02,29,12,18,-29.10
2020,02,29,12,19,-29.00
2020,02,29,12,20,-29.00
2020,02,29,12,21,-29.00
2020,02,29,12,22,-28.80
2020,02,29,12,23,-28.70
2020,02,29,12,24,-28.60
2020,02,29,12,25,-28.50
2020,02,29,12,26,-28.40
2020,02,29,12,27,-28.40
2020,02,29,12,28,-28.30
2020,02,29,12,29,-28.20
2020,02,29,12,30,-28.10
2020,02,29,12,31,-28.10
2020,02,29,12,32,-28.00
2020,02,29,12,33,-27.90
2020,02,29,12,34,-27.80
2020,02,29,12,35,-27.70
2020,02,29,12,36,-27.70
2020,02,29,12,37,-27.60
2020,02,29,12,38,-27.50
2020,02,29,12,39,-27.40
2020,02,29,12,40,-27.30
2020,02,29,12,41,-27.20
2020,02,29,12,42,-27.10
2020,02,29,12,43,-27.00
2020,02,29,12,44,-27.00
2020,02,29,12,45,-27.00
2020,02,29,12,46,-26.90
2020,02,29,12,47,-26.90
2020,02,29,12,48,-26.90
2020,02,29,12,49,-26.90
2020,02,29,12,50,-26.90
2020,02,29,12,51,-26.80
2020,02,29,12,52,-26.80
2020,02,29,12,53,-26.80
2020,02,29,12,54,-26.80
2020,02,29,12,55,-26.80
2020,02,29,12,56,-26.80
2020,02,29,12,57,-26.70
2020,02,29,12,58,-26.60
2020,02,29,12,59,-26.60
2020,02,29,13,00,-26.60
2020,02,29,13,01,-26.50
2020,02,29,13,02,-26.50
2020,02,29,13,03,-26.40
2020,02,29,13,04,-26.40
2020,02,29,13,05,-26.40
2020,02,29,13,06,-26.30
2020,02,29,13,07,-26.30
2020,02,29,13,08,-26.30
2020,02,29,13,09,-26.40
2020,02,29,13,10,-26.50
2020,02,29,13,11,-26.60
2020,02,29,13,12,-26.70
2020,02,29,13,13,-26.70
2020,02,29,13,14,-26.80
2020,02,29,13,15,-26.80
2020,02,29,13,16,-26.80
2020,02,29,13,17,-26.80
2020,02,29,13,18,-26.80
2020,02,29,13,19,-26.70
2020,02,29,13,20,-26.70
2020,02,29,13,21,-26.60
2020,02,29,13,22,-26.50
2020,02,29,13,23,-26.50
2020,02,29,13,24,-26.40
2020,02,29,13,25,-26.30
2020,02,29,13,26,-26.30
2020,02,29,13,27,-26.20
2020,02,29,13,28,-26.10
2020,02,29,13,29,-26.00
2020,02,29,13,30,-26.00
2020,02,29,13,31,-25.90
2020,02,29,13,32,-25.80
2020,02,29,13,33,-25.80
2020,02,29,13,34,-25.80
2020,02,29,13,35,-25.70
2020,02,29,13,36,-25.70
2020,02,29,13,37,-25.70
2020,02,29,13,38,-25.70
2020,02,29,13,39,-25.70
2020,02,29,13,40,-25.70
2020,02,29,13,41,-25.70
2020,02,29,13,42,-25.80
2020,02,29,13,43,-25.80
2020,02,29,13,44,-25.70
2020,02,29,13,45,-25.70
2020,02,29,13,46,-25.70
2020,02,29,13,47,-25.70
2020,02,29,13,48,-25.60
2020,02,29,13,49,-25.60
2020,02,29,13,50,-25.60
2020,02,29,13,51,-25.50
2020,02,29,13,52,-25.50
2020,02,29,13,53,-25.50
2020,02,29,13,54,-25.50
2020,02,29,13,55,-25.40
2020,02,29,13,56,-25.40
2020,02,29,13,57,-25.30
2020,02,29,13,58,-25.30
2020,02,29,13,59,-25.20
2020,02,29,14,00,-25.20
2020,02,29,14,01,-25.20
2020,02,29,14,02,-25.10
2020,02,29,14,03,-25.10
2020,02,29,14,04,-25.10
2020,02,29,14,05,-25.10
2020,02,29,14,06,-25.00
2020,02,29,14,07,-25.00
2020,02,29,14,08,-25.00
2020,02,29,14,09,-25.00
2020,02,29,14,10,-25.00
2020,02,29,14,11,-25.00
2020,02,29,14,12,-25.00
2020,02,29,14,13,-25.00
2020,02,29,14,14,-25.10
2020,02,29,14,15,-25.10
2020,02,29,14,16,-25.00
2020,02,29,14,17,-25.00
2020,02,29,14,18,-25.00
2020,02,29,14,19,-25.00
2020,02,29,14,20,-24.90
2020,02,29,14,21,-24.90
2020,02,29,14,22,-24.90
2020,02,29,14,23,-24.80
2020,02,29,14,24,-24.80
2020,02,29,14,25,-24.80
2020,02,29,14,26,-24.70
2020,02,29,14,27,-24.70
2020,02,29,14,28,-24.70
2020,02,29,14,29,-24.70
2020,02,29,14,30,-24.60
2020,02,29,14,31,-24.60
2020,02,29,14,32,-24.50
2020,02,29,14,33,-24.50
2020,02,29,14,34,-24.40
2020,02,29,14,35,-24.40
2020,02,29,14,36,-24.40
2020,02,29,14,37,-24.30
2020,02,29,14,38,-24.30
2020,02,29,14,39,-24.20
2020,02,29,14,40,-24.20
2020,02,29,14,41,-24.20
2020,02,29,14,42,-24.20
2020,02,29,14,43,-24.10
2020,02,29,14,44,-24.10
2020,02,29,14,45,-24.10
2020,02,29,14,46,-24.10
2020,02,29,14,47,-24.00
2020,02,29,14,48,-24.00
2020,02,29,14,49,-24.00
2020,02,29,14,50,-23.90
2020,02,29,14,51,-23.90
2020,02,29,14,52,-23.90
2020,02,29,14,53,-23.90
2020,02,29,14,54,-23.90
2020,02,29,14,55,-23.90
2020,02,29,14,56,-23.90
2020,02,29,14,57,-23.80
2020,02,29,14,58,-23.80
2020,02,29,14,59,-23.80
2020,02,29,15,00,-23.80
2020,02,29,15,01,-23.80
2020,02,29,15,02,-23.80
2020,02,29,15,03,-23.80
2020,02,29,15,04,-23.70
2020,02,29,15,05,-23.70
2020,02,29,15,06,-23.70
2020,02,29,15,07,-23.60
2020,02,29,15,08,-23.50
2020,02,29,15,09,-23.50
2020,02,29,15,10,-23.40
2020,02,29,15,11,-23.30
2020,02,29,15,12,-23.20
2020,02,29,15,13,-23.20
2020,02,29,15,14,-23.20
2020,02,29,15,15,-23.10
2020,02,29,15,16,-23.10
2020,02,29,15,17,-23.10
2020,02,29,15,18,-23.00
2020,02,29,15,19,-23.00
2020,02,29,15,20,-23.00
2020,02,29,15,21,-22.90
2020,02,29,15,22,-22.90
2020,02,29,15,23,-22.90
2020,02,29,15,24,-22.80
2020,02,29,15,25,-22.80
2020,02,29,15,26,-22.70
2020,02,29,15,27,-22.70
2020,02,29,15,28,-22.70
2020,02,29,15,29,-22.70
2020,02,29,15,30,-22.70
2020,02,29,15,31,-22.60
2020,02,29,15,32,-22.70
2020,02,29,15,33,-22.70
2020,02,29,15,34,-22.70
2020,02,29,15,35,-22.70
2020,02,29,15,36,-22.70
2020,02,29,15,37,-22.70
2020,02,29,15,38,-22.70
2020,02,29,15,39,-22.70
2020,02,29,15,40,-22.70
2020,02,29,15,41,-22.70
2020,02,29,15,42,-22.70
2020,02,29,15,43,-22.70
2020,02,29,15,44,-22.70
2020,02,29,15,45,-22.80
2020,02,29,15,46,-22.80
2020,02,29,15,47,-22.80
2020,02,29,15,48,-22.80
2020,02,29,15,49,-22.80
2020,02,29,15,50,-22.80
2020,02,29,15,51,-22.80
2020,02,29,15,52,-22.80
2020,02,29,15,53,-22.80
2020,02,29,15,54,-22.80
2020,02,29,15,55,-22.80
2020,02,29,15,56,-22.80
2020,02,29,15,57,-22.80
2020,02,29,15,58,-22.80
2020,02,29,15,59,-22.80
2020,02,29,16,00,-22.70
2020,02,29,16,01,-22.70
2020,02,29,16,02,-22.70
2020,02,29,16,03,-22.70
2020,02,29,16,04,-22.70
2020,02,29,16,05,-22.70
2020,02,29,16,06,-22.70
2020,02,29,16,07,-22.70
2020,02,29,16,08,-22.60
2020,02,29,16,09,-22.60
2020,02,29,16,10,-22.60
2020,02,29,16,11,-22.60
2020,02,29,16,12,-22.60
2020,02,29,16,13,-22.60
2020,02,29,16,14,-22.70
2020,02,29,16,15,-22.60
2020,02,29,16,16,-22.60
2020,02,29,16,17,-22.60
2020,02,29,16,18,-22.60
2020,02,29,16,19,-22.60
2020,02,29,16,20,-22.60
2020,02,29,16,21,-22.60
2020,02,29,16,22,-22.60
2020,02,29,16,23,-22.60
2020,02,29,16,24,-22.60
2020,02,29,16,25,-22.60
2020,02,29,16,26,-22.60
2020,02,29,16,27,-22.60
2020,02,29,16,28,-22.70
2020,02,29,16,29,-22.80
2020,02,29,16,30,-22.90
2020,02,29,16,31,-23.00
2020,02,29,16,32,-23.10
2020,02,29,16,33,-23.10
2020,02,29,16,34,-23.20
2020,02,29,16,35,-23.20
2020,02,29,16,36,-23.20
2020,02,29,16,37,-23.10
2020,02,29,16,38,-23.10
2020,02,29,16,39,-23.00
2020,02,29,16,40,-23.00
2020,02,29,16,41,-23.00
2020,02,29,16,42,-23.00
2020,02,29,16,43,-23.00
2020,02,29,16,44,-23.00
2020,02,29,16,45,-23.00
2020,02,29,16,46,-23.00
2020,02,29,16,47,-23.00
2020,02,29,16,48,-23.00
2020,02,29,16,49,-23.00
2020,02,29,16,50,-23.00
2020,02,29,16,51,-23.10
2020,02,29,16,52,-23.10
2020,02,29,16,53,-23.10
2020,02,29,16,54,-23.10
2020,02,29,16,55,-23.10
2020,02,29,16,56,-23.10
2020,02,29,16,57,-23.10
2020,02,29,16,58,-23.10
2020,02,29,16,59,-23.10
2020,02,29,17,00,-23.10
2020,02,29,17,01,-23.10
2020,02,29,17,02,-23.20
2020,02,29,17,03,-23.20
2020,02,29,17,04,-23.20
2020,02,29,17,05,-23.20
2020,02,29,17,06,-23.20
2020,02,29,17,07,-23.20
2020,02,29,17,08,-23.20
2020,02,29,17,09,-23.20
2020,02,29,17,10,-23.10
2020,02,29,17,11,-23.10
2020,02,29,17,12,-23.10
2020,02,29,17,13,-23.10
2020,02,29,17,14,-23.10
2020,02,29,17,15,-23.10
2020,02,29,17,16,-23.10
2020,02,29,17,17,-23.10
2020,02,29,17,18,-23.10
2020,02,29,17,19,-23.10
2020,02,29,17,20,-23.10
2020,02,29,17,21,-23.10
2020,02,29,17,22,-23.10
2020,02,29,17,23,-23.10
2020,02,29,17,24,-23.10
2020,02,29,17,25,-23.10
2020,02,29,17,26,-23.20
2020,02,29,17,27,-23.20
2020,02,29,17,28,-23.20
2020,02,29,17,29,-23.20
2020,02,29,17,30,-23.20
2020,02,29,17,31,-23.20
2020,02,29,17,32,-23.20
2020,02,29,17,33,-23.20
2020,02,29,17,34,-23.20
2020,02,29,17,35,-23.20
2020,02,29,17,36,-23.20
2020,02,29,17,37,-23.20
2020,02,29,17,38,-23.20
2020,02,29,17,39,-23.20
2020,02,29,17,40,-23.20
2020,02,29,17,41,-23.20
2020,02,29,17,42,-23.20
2020,02,29,17,43,-23.20
2020,02,29,17,44,-23.30
2020,02,29,17,45,-23.30
2020,02,29,17,46,-23.30
2020,02,29,17,47,-23.30
2020,02,29,17,48,-23.30
2020,02,29,17,49,-23.40
2020,02,29,17,50,-23.40
2020,02,29,17,51,-23.50
2020,02,29,17,52,-23.50
2020,02,29,17,53,-23.60
2020,02,29,17,54,-23.70
2020,02,29,17,55,-23.70
2020,02,29,17,56,-23.80
2020,02,29,17,57,-23.80
2020,02,29,17,58,-23.80
2020,02,29,17,59,-23.80
2020,02,29,18,00,-23.80
2020,02,29,18,01,-23.90
2020,02,29,18,02,-23.90
2020,02,29,18,03,-23.90
2020,02,29,18,04,-23.90
2020,02,29,18,05,-24.00
2020,02,29,18,06,-24.00
2020,02,29,18,07,-24.10
2020,02,29,18,08,-24.10
2020,02,29,18,09,-24.10
2020,02,29,18,10,-24.10
2020,02,29,18,11,-24.10
2020,02,29,18,12,-24.20
2020,02,29,18,13,-24.20
2020,02,29,18,14,-24.20
2020,02,29,18,15,-24.20
2020,02,29,18,16,-24.20
2020,02,29,18,17,-24.30
2020,02,29,18,18,-24.30
2020,02,29,18,19,-24.30
2020,02,29,18,20,-24.30
2020,02,29,18,21,-24.30
2020,02,29,18,22,-24.30
2020,02,29,18,23,-24.40
2020,02,29,18,24,-24.40
2020,02,29,18,25,-24.40
2020,02,29,18,26,-24.40
2020,02,29,18,27,-24.50
2020,02,29,18,28,-24.50
2020,02,29,18,29,-24.50
2020,02,29,18,30,-24.50
2020,02,29,18,31,-24.50
2020,02,29,18,32,-24.50
2020,02,29,18,33,-24.60
2020,02,29,18,34,-24.60
2020,02,29,18,35,-24.60
2020,02,29,18,36,-24.60
2020,02,29,18,37,-24.60
2020,02,29,18,38,-24.70
2020,02,29,18,39,-24.70
2020,02,29,18,40,-24.70
2020,02,29,18,41,-24.70
2020,02,29,18,42,-24.70
2020,02,29,18,43,-24.70
2020,02,29,18,44,-24.80
2020,02,29,18,45,-24.80
2020,02,29,18,46,-24.80
2020,02,29,18,47,-24.90
2020,02,29,18,48,-24.90